Date String (YYYY-MM-DD hh:mm:ss) UTC,Instrument flags,Ambient pressure (hPa),Sample flow (lpm),Bypass flow (lpm),Sample temperature (°C),Ambient temperature (°C),ASC tube jacket temperature (°C),LED temperature (°C),Box temperature (°C),Sample RH (%),Span deviation,Mass concentration (μg/m³),Mass concentration (μg/m³),Mass concentration (μg/m³)
DateTimeUTC,F1_M11,P_M11,Q1_M11,Q2_M11,T1_M11,T2_M11,T3_M11,T4_M11,T5_M11,U1_M11,ZSPAN_M11,X2_M11,X0_M11,X1_M11
2021-09-30 00:00:00,,0828.1,4.99,0.00,30.6,29.7,00.0,39.7,32.3,21.1,0000.0,0004.42,0008.27,0003.76
2021-09-30 00:01:00,,0828.0,5.01,0.00,30.6,29.8,00.0,39.7,32.3,21.1,0000.0,0004.32,0008.37,0003.74
2021-09-30 00:02:00,,0828.1,5.02,0.00,30.6,29.8,00.0,39.7,32.3,21.1,0000.0,0004.30,0008.36,0003.73
2021-09-30 00:03:00,,0828.1,5.00,0.00,30.6,29.7,00.0,39.7,32.3,21.0,0000.0,0004.26,0008.10,0003.71
2021-09-30 00:04:00,,0828.1,5.00,0.00,30.5,28.0,00.0,39.7,31.8,20.8,0000.0,0004.29,0008.08,0003.71
2021-09-30 00:05:00,,0828.1,5.00,0.00,30.3,26.5,00.0,39.6,31.4,21.0,0000.0,0004.32,0008.30,0003.71
2021-09-30 00:06:00,,0828.1,5.00,0.00,30.2,26.4,00.0,39.6,31.4,20.8,0000.0,0004.28,0008.32,0003.69
2021-09-30 00:07:00,,0828.1,5.01,0.00,30.1,26.9,00.0,39.5,31.4,20.9,0000.0,0004.28,0008.85,0003.67
2021-09-30 00:08:00,,0828.1,5.00,0.00,30.0,27.3,00.0,39.4,31.5,21.0,0000.0,0004.27,0009.00,0003.65
2021-09-30 00:09:00,,0828.1,5.01,0.00,30.0,27.7,00.0,39.4,31.6,21.1,0000.0,0004.24,0008.87,0003.63
2021-09-30 00:10:00,,0828.1,4.98,0.00,30.0,28.0,00.0,39.4,31.7,21.0,0000.0,0004.22,0009.00,0003.61
2021-09-30 00:11:00,,0828.2,5.01,0.00,30.0,28.3,00.0,39.3,31.7,20.8,0000.0,0004.19,0009.91,0003.59
2021-09-30 00:12:00,,0828.2,5.00,0.00,30.0,28.5,00.0,39.3,31.7,21.0,0000.0,0004.17,0009.94,0003.56
2021-09-30 00:13:00,,0828.2,5.00,0.00,30.0,28.6,00.0,39.3,31.7,20.8,0000.0,0004.15,0009.91,0003.54
2021-09-30 00:14:00,,0828.2,5.00,0.00,30.1,28.8,00.0,39.3,31.7,21.0,0000.0,0004.13,0009.94,0003.52
2021-09-30 00:15:00,,0828.3,5.01,0.00,30.1,28.9,00.0,39.3,31.8,20.9,0000.0,0004.09,0009.88,0003.50
2021-09-30 00:16:00,,0828.3,5.00,0.00,30.1,29.0,00.0,39.3,31.9,20.9,0000.0,0004.02,0009.64,0003.47
2021-09-30 00:17:00,,0828.3,4.99,0.00,30.1,29.0,00.0,39.3,31.9,20.6,0000.0,0004.05,0009.62,0003.46
2021-09-30 00:18:00,,0828.3,5.00,0.00,30.1,29.1,00.0,39.3,31.9,20.7,0000.0,0004.03,0009.25,0003.45
2021-09-30 00:19:00,,0828.3,5.01,0.00,30.2,29.2,00.0,39.3,31.9,20.6,0000.0,0004.00,0008.81,0003.44
2021-09-30 00:20:00,,0828.3,5.00,0.00,30.2,29.2,00.0,39.3,31.9,20.7,0000.0,0003.99,0008.79,0003.42
2021-09-30 00:21:00,,0828.4,4.99,0.00,30.2,29.3,00.0,39.3,32.0,20.7,0000.0,0003.97,0008.80,0003.42
2021-09-30 00:22:00,,0828.4,4.99,0.00,30.2,29.3,00.0,39.3,32.0,20.7,0000.0,0003.95,0008.29,0003.41
2021-09-30 00:23:00,,0828.4,5.00,0.00,30.2,29.3,00.0,39.3,32.0,21.0,0000.0,0003.96,0007.58,0003.40
2021-09-30 00:24:00,,0828.5,5.00,0.00,30.2,29.4,00.0,39.3,32.0,20.9,0000.0,0003.97,0007.57,0003.41
2021-09-30 00:25:00,,0828.4,4.99,0.00,30.3,29.4,00.0,39.3,32.0,20.9,0000.0,0003.94,0007.38,0003.41
2021-09-30 00:26:00,,0828.5,5.00,0.00,30.3,29.4,00.0,39.3,32.0,20.8,0000.0,0003.92,0007.37,0003.41
2021-09-30 00:27:00,,0828.5,5.01,0.00,30.3,29.4,00.0,39.3,32.0,20.8,0000.0,0003.91,0007.31,0003.40
2021-09-30 00:28:00,,0828.4,5.00,0.00,30.3,29.5,00.0,39.4,32.1,20.8,0000.0,0003.88,0007.32,0003.41
2021-09-30 00:29:00,,0828.4,5.01,0.00,30.3,29.5,00.0,39.4,32.1,20.9,0000.0,0003.87,0007.40,0003.41
2021-09-30 00:30:00,,0828.4,4.99,0.00,30.3,29.5,00.0,39.4,32.1,21.1,0000.0,0003.91,0007.61,0003.41
2021-09-30 00:31:00,,0828.5,5.01,0.00,30.3,29.5,00.0,39.4,32.1,21.1,0000.0,0003.92,0007.67,0003.42
2021-09-30 00:32:00,,0828.5,4.99,0.00,30.4,29.5,00.0,39.4,32.1,21.1,0000.0,0003.93,0007.63,0003.42
2021-09-30 00:33:00,,0828.5,5.01,0.00,30.4,29.5,00.0,39.4,32.1,21.1,0000.0,0003.93,0007.43,0003.42
2021-09-30 00:34:00,,0829.1,4.99,0.00,30.4,29.5,00.0,39.4,32.1,20.9,0000.0,0003.92,0007.41,0003.41
2021-09-30 00:35:00,,0829.1,5.01,0.00,30.4,29.6,00.0,39.4,32.1,20.7,0000.0,0003.91,0007.36,0003.41
2021-09-30 00:36:00,,0829.0,5.00,0.00,30.4,29.6,00.0,39.5,32.1,20.8,0000.0,0003.93,0007.40,0003.41
2021-09-30 00:37:00,,0829.1,4.99,0.00,30.4,29.6,00.0,39.5,32.1,20.9,0000.0,0003.94,0007.39,0003.41
2021-09-30 00:38:00,,0828.8,5.00,0.00,30.4,29.6,00.0,39.5,32.1,20.9,0000.0,0003.94,0007.38,0003.42
2021-09-30 00:39:00,,0829.0,5.01,0.00,30.4,29.6,00.0,39.5,32.1,20.7,0000.0,0003.94,0007.28,0003.41
2021-09-30 00:40:00,,0829.1,5.00,0.00,30.4,29.6,00.0,39.5,32.1,20.7,0000.0,0003.90,0006.93,0003.41
2021-09-30 00:41:00,,0829.2,4.99,0.00,30.4,29.6,00.0,39.5,32.1,20.7,0000.0,0003.87,0007.34,0003.40
2021-09-30 00:42:00,,0828.7,5.01,0.00,30.4,29.6,00.0,39.5,32.2,20.6,0000.0,0003.87,0007.35,0003.39
2021-09-30 00:43:00,,0828.7,5.01,0.00,30.4,29.6,00.0,39.5,32.2,20.6,0000.0,0003.88,0007.47,0003.38
2021-09-30 00:44:00,,0828.7,4.99,0.00,30.4,29.6,00.0,39.5,32.2,20.5,0000.0,0003.89,0007.50,0003.39
2021-09-30 00:45:00,,0828.7,5.01,0.00,30.5,29.6,00.0,39.6,32.2,20.5,0000.0,0003.86,0007.39,0003.39
2021-09-30 00:46:00,,0828.7,5.00,0.00,30.5,29.6,00.0,39.6,32.2,20.3,0000.0,0003.87,0007.80,0003.39
2021-09-30 00:47:00,,0828.7,4.99,0.00,30.5,29.6,00.0,39.6,32.2,20.2,0000.0,0003.88,0008.09,0003.38
2021-09-30 00:48:00,,0828.7,5.00,0.00,30.5,29.6,00.0,39.6,32.2,20.3,0000.0,0003.87,0008.12,0003.38
2021-09-30 00:49:00,,0828.7,4.99,0.00,30.5,29.6,00.0,39.6,32.2,20.1,0000.0,0003.87,0008.12,0003.38
2021-09-30 00:50:00,,0828.7,5.01,0.00,30.5,29.6,00.0,39.6,32.2,20.3,0000.0,0003.86,0008.23,0003.37
2021-09-30 00:51:00,,0828.7,5.00,0.00,30.5,29.6,00.0,39.6,32.2,20.3,0000.0,0003.89,0008.61,0003.37
2021-09-30 00:52:00,,0828.7,5.00,0.00,30.5,29.6,00.0,39.6,32.2,20.3,0000.0,0003.90,0008.19,0003.37
2021-09-30 00:53:00,,0828.7,4.99,0.00,30.5,29.6,00.0,39.6,32.2,20.3,0000.0,0003.91,0008.21,0003.38
2021-09-30 00:54:00,,0828.7,5.01,0.00,30.5,29.6,00.0,39.6,32.2,20.2,0000.0,0003.89,0008.10,0003.38
2021-09-30 00:55:00,,0828.7,5.00,0.00,30.5,29.6,00.0,39.6,32.2,20.2,0000.0,0003.83,0007.98,0003.36
2021-09-30 00:56:00,,0828.7,5.01,0.00,30.5,29.6,00.0,39.6,32.3,20.2,0000.0,0003.85,0008.09,0003.36
2021-09-30 00:57:00,,0829.0,4.99,0.00,30.5,29.6,00.0,39.7,32.3,20.2,0000.0,0003.81,0008.13,0003.37
2021-09-30 00:58:00,,0829.3,5.00,0.00,30.5,29.6,00.0,39.7,32.3,20.2,0000.0,0003.80,0007.82,0003.38
2021-09-30 00:59:00,,0829.3,4.99,0.00,30.5,29.6,00.0,39.7,32.2,20.2,0000.0,0003.85,0007.93,0003.38
